Location: Byszew
(52.1813°N, 19.2693°E)
Time: 01:59:28
(UTC+00:00)

Cosmos 2278 Rocket - Pass Details

Date: 03 March 2021
Orbit: 841 x 845 km, 71.0° (Epoch: 11 April)

Event Time Altitude Azimuth Distance (km) Brightness Sun altitude
Rises 16:55:15 0° 327° (NNW) 3,417 5.8 -5.2°
Reaches altitude 10° 16:58:27 10° 345° (NNW) 2,479 4.8 -5.7°
Maximum altitude 17:02:28 19° 30° (NNE) 1,904 3.8 -6.3°
Drops below altitude 10° 17:06:28 10° 75° (ENE) 2,472 4.0 -7.0°
Enters shadow 17:07:04 - 80° (E) 2,628 4.1 -7.0°
